Weather History for Greenwood, SC

Change the Weather History Date:

Sunday, December 4, 2011

  Actual Average (KAND) Record (KAND)
Temperature  
Mean Temperature 48 °F -  
Max Temperature 60 °F 57 °F 74 °F (1956)
Min Temperature 35 °F 35 °F 20 °F (1989)
Degree Days  
Heating Degree Days 18    
Moisture  
Dew Point 38 °F    
Average Humidity 69    
Maximum Humidity 89    
Minimum Humidity 44    
Precipitation  
Precipitation 0.00 in - - ()
Sea Level Pressure  
Sea Level Pressure 30.43 in    
Wind  
Wind Speed 5 mph (NNE)    
Max Wind Speed 8 mph    
Max Gust Speed -    
Visibility 10 miles    
Events      
Averages and records for this station are not official NWS values.
T = Trace of Precipitation, MM = Missing Value Source: NWS Daily Summary

Daily Weather History Graph

Daily Weather History Graph

Search for Another Location

Airport:

Trip Planner

Search our weather history database for the weather conditions in past years. The results will help you decide how hot, cold, wet, or windy it might be!

Date:

Astronomy

Dec. 04, 2011 Rise Set
Actual Time 7:18 AM EST 5:18 PM EST
Civil Twilight 6:51 AM EST 5:46 PM EST
Nautical Twilight 6:20 AM EST 6:17 PM EST
Astronomical Twilight 5:49 AM EST 6:47 PM EST
Moon 1:38 PM EST (12/4) 1:54 AM EST (12/4)
Length of Visible Light 10h 54m
Length of Day
9h 59m
Waxing Gibbous, 71% of the Moon is Illuminated
Dec 4
Waxing Gibbous
Dec 10
Full
Dec 17
Last Quarter
Dec 24
New
Jan 1
First Quarter

Hourly Weather History & Observations

Time (EST) Temp. Windchill Dew Point Humidity Pressure Visibility Wind Dir Wind Speed Gust Speed Precip Events Conditions
12:56 AM 36.0 °F 32.1 °F 32.0 °F 86% 30.50 in 10.0 mi NNE 4.6 mph - N/A   Clear
1:56 AM 36.0 °F 33.3 °F 32.0 °F 86% 30.49 in 10.0 mi North 3.5 mph - N/A   Clear
2:56 AM 35.1 °F 32.2 °F 32.0 °F 89% 30.49 in 10.0 mi North 3.5 mph - N/A   Clear
3:56 AM 37.0 °F 33.3 °F 33.1 °F 86% 30.48 in 10.0 mi NNE 4.6 mph - N/A   Clear
4:56 AM 36.0 °F 32.1 °F 33.1 °F 89% 30.48 in 10.0 mi North 4.6 mph - N/A   Clear
5:56 AM 37.0 °F 34.5 °F 33.1 °F 86% 30.49 in 10.0 mi North 3.5 mph - N/A   Partly Cloudy
6:56 AM 36.0 °F 32.1 °F 33.1 °F 89% 30.50 in 10.0 mi NNE 4.6 mph - N/A   Mostly Cloudy
7:56 AM 39.9 °F 35.1 °F 35.1 °F 83% 30.50 in 9.0 mi NNE 6.9 mph - N/A   Overcast
8:56 AM 42.1 °F 37.1 °F 37.0 °F 82% 30.51 in 10.0 mi North 8.1 mph - N/A   Overcast
9:56 AM 48.0 °F - 39.0 °F 71% 30.50 in 10.0 mi North 6.9 mph - N/A   Overcast
10:56 AM 50.0 °F - 39.0 °F 66% 30.49 in 10.0 mi NNE 5.8 mph - N/A   Overcast
11:15 AM 51.8 °F - 39.2 °F 62% 30.47 in 10.0 mi NNE 8.1 mph - N/A   Overcast
11:32 AM 53.6 °F - 39.2 °F 58% 30.47 in 10.0 mi North 6.9 mph - N/A   Overcast
11:39 AM 53.6 °F - 39.2 °F 58% 30.46 in 10.0 mi NE 6.9 mph - N/A   Overcast
11:56 AM 54.0 °F - 37.9 °F 55% 30.46 in 10.0 mi NE 5.8 mph - N/A   Overcast
12:25 PM 57.2 °F - 37.4 °F 48% 30.43 in 10.0 mi NNE 5.8 mph - N/A   Overcast
12:56 PM 59.0 °F - 37.0 °F 44% 30.41 in 10.0 mi East 6.9 mph - N/A   Overcast
1:56 PM 60.1 °F - 37.9 °F 44% 30.37 in 10.0 mi East 6.9 mph - N/A   Mostly Cloudy
3:56 PM 57.9 °F - 43.0 °F 58% 30.36 in 10.0 mi ENE 3.5 mph - N/A   Overcast
4:56 PM 57.0 °F - 44.1 °F 62% 30.36 in 10.0 mi NE 4.6 mph - N/A   Overcast
5:56 PM 55.9 °F - 43.0 °F 62% 30.36 in 10.0 mi NNE 5.8 mph - N/A   Overcast
6:56 PM 55.9 °F - 43.0 °F 62% 30.36 in 10.0 mi North 4.6 mph - N/A   Overcast
7:56 PM 55.0 °F - 43.0 °F 64% 30.36 in 10.0 mi North 4.6 mph - N/A   Overcast
8:56 PM 55.0 °F - 43.0 °F 64% 30.36 in 10.0 mi NNE 4.6 mph - N/A   Overcast
9:56 PM 54.0 °F - 43.0 °F 66% 30.36 in 10.0 mi NNE 3.5 mph - N/A   Overcast
10:56 PM 54.0 °F - 43.0 °F 66% 30.35 in 10.0 mi Calm Calm - N/A   Overcast
11:56 PM 54.0 °F - 43.0 °F 66% 30.34 in 10.0 mi Calm Calm - N/A   Overcast